Time,TemperatureF,DewpointF,PressureIn,WindDirection,WindDirectionDegrees,WindSpeedMPH,WindSpeedGustMPH,Humidity,HourlyPrecipIn,Conditions,Clouds,dailyrainin,SoftwareType,DateUTC
2013-08-15 00:23:00,62.0,60.0,30.03,North,0,0.0,0.0,92,0.00,,,0.00,,2013-08-15 04:23:00,
2013-08-15 00:52:00,61.0,59.0,30.04,North,0,0.0,0.0,92,0.00,,,0.00,,2013-08-15 04:52:00,
2013-08-15 01:22:00,61.0,59.0,30.04,North,0,0.0,0.0,93,0.00,,,0.00,,2013-08-15 05:22:00,
2013-08-15 01:52:00,60.0,58.0,30.03,North,0,0.0,0.0,93,0.00,,,0.00,,2013-08-15 05:52:00,
2013-08-15 02:02:00,60.0,58.0,30.03,North,0,0.0,0.0,93,0.00,,,0.00,,2013-08-15 06:02:00,
2013-08-15 02:21:00,60.0,58.0,30.03,North,0,0.0,0.0,93,0.00,,,0.00,,2013-08-15 06:21:00,
2013-08-15 02:52:00,60.0,58.0,30.03,North,0,0.0,0.0,93,0.00,,,0.00,,2013-08-15 06:52:00,
2013-08-15 03:02:00,60.0,58.0,30.03,North,0,0.0,0.0,93,0.00,,,0.00,,2013-08-15 07:02:00,
2013-08-15 03:21:00,60.0,58.0,30.03,North,0,0.0,0.0,94,0.00,,,0.00,,2013-08-15 07:21:00,
2013-08-15 03:52:00,59.0,57.0,30.03,North,0,0.0,0.0,94,0.00,,,0.00,,2013-08-15 07:52:00,
2013-08-15 04:21:00,59.0,57.0,30.03,North,0,0.0,0.0,94,0.00,,,0.00,,2013-08-15 08:21:00,
2013-08-15 04:52:00,59.0,57.0,30.04,North,0,0.0,0.0,94,0.00,,,0.00,,2013-08-15 08:52:00,
2013-08-15 05:21:00,59.0,57.0,30.05,North,0,0.0,0.0,94,0.00,,,0.00,,2013-08-15 09:21:00,
2013-08-15 05:53:00,58.0,56.0,30.05,North,0,0.0,0.0,94,0.00,,,0.00,,2013-08-15 09:53:00,
2013-08-15 06:22:00,58.0,56.0,30.06,North,0,0.0,0.0,94,0.00,,,0.00,,2013-08-15 10:22:00,
2013-08-15 06:52:00,58.0,56.0,30.07,North,0,0.0,0.0,94,0.00,,,0.00,,2013-08-15 10:52:00,
2013-08-15 07:22:00,58.0,56.0,30.09,North,0,0.0,0.0,94,0.00,,,0.00,,2013-08-15 11:22:00,
2013-08-15 07:52:00,58.0,57.0,30.09,North,0,0.0,0.0,95,0.00,,,0.00,,2013-08-15 11:52:00,
2013-08-15 08:21:00,58.0,57.0,30.10,North,0,0.0,0.0,95,0.00,,,0.00,,2013-08-15 12:21:00,
2013-08-15 08:52:00,59.0,58.0,30.10,North,0,0.0,1.0,96,0.00,,,0.00,,2013-08-15 12:52:00,
2013-08-15 09:21:00,60.0,59.0,30.11,North,0,0.0,1.0,95,0.00,,,0.00,,2013-08-15 13:21:00,
2013-08-15 09:52:00,61.0,59.0,30.10,North,0,0.0,0.0,94,0.00,,,0.00,,2013-08-15 13:52:00,
2013-08-15 10:22:00,62.0,58.0,30.10,North,0,0.0,1.0,88,0.00,,,0.00,,2013-08-15 14:22:00,
2013-08-15 10:56:00,64.0,60.0,30.11,North,0,0.0,0.0,88,0.00,,,0.00,,2013-08-15 14:56:00,
2013-08-15 11:05:00,64.0,60.0,30.11,North,0,0.0,0.0,88,0.00,,,0.00,,2013-08-15 15:05:00,
2013-08-15 11:23:00,68.0,63.0,30.11,North,0,0.0,1.0,83,0.00,,,0.00,,2013-08-15 15:23:00,
2013-08-15 11:34:00,68.0,63.0,30.11,North,0,0.0,1.0,83,0.00,,,0.00,,2013-08-15 15:34:00,
2013-08-15 11:54:00,70.0,62.0,30.11,North,0,0.0,3.0,75,0.00,,,0.00,,2013-08-15 15:54:00,
2013-08-15 12:26:00,71.0,61.0,30.10,North,0,0.0,4.0,71,0.00,,,0.00,,2013-08-15 16:26:00,
2013-08-15 12:53:00,72.0,61.0,30.09,North,0,0.0,1.0,68,0.00,,,0.00,,2013-08-15 16:53:00,
2013-08-15 12:55:00,73.0,62.0,30.09,North,0,0.0,3.0,68,0.00,,,0.00,,2013-08-15 16:55:00,
2013-08-15 13:31:00,72.0,-99.9,30.09,North,0,0.0,1.0,68,0.00,,,0.00,,2013-08-15 17:31:00,
2013-08-15 13:38:00,72.0,61.0,30.09,North,0,0.0,1.0,68,0.00,,,0.00,,2013-08-15 17:38:00,
2013-08-15 14:00:00,-999.0,-99.9,30.07,North,0,0.0,3.0,-999,-99.99,,,-99.99,,2013-08-15 18:00:00,
2013-08-15 14:36:00,-999.0,-99.9,30.07,North,0,0.0,2.0,-999,0.00,,,0.00,,2013-08-15 18:36:00,
2013-08-15 15:07:00,-999.0,-99.9,30.05,North,0,0.0,1.0,-999,0.00,,,0.00,,2013-08-15 19:07:00,
2013-08-15 15:34:00,-999.0,-99.9,30.05,North,0,0.0,0.0,-999,-99.99,,,-99.99,,2013-08-15 19:34:00,
2013-08-15 16:13:00,73.0,61.0,30.05,North,0,0.0,1.0,65,0.00,,,0.00,,2013-08-15 20:13:00,
2013-08-15 16:32:00,73.0,61.0,30.04,North,0,0.0,0.0,67,0.00,,,0.00,,2013-08-15 20:32:00,
2013-08-15 17:04:00,72.0,63.0,30.04,North,0,0.0,0.0,73,0.00,,,0.00,,2013-08-15 21:04:00,
2013-08-15 17:39:00,71.0,63.0,30.03,North,0,0.0,0.0,77,0.00,,,0.00,,2013-08-15 21:39:00,
2013-08-15 17:57:00,70.0,64.0,30.03,North,0,0.0,0.0,80,0.00,,,0.00,,2013-08-15 21:57:00,
2013-08-15 18:29:00,69.0,63.0,30.04,North,0,0.0,0.0,82,0.00,,,0.00,,2013-08-15 22:29:00,
2013-08-15 18:58:00,69.0,65.0,30.04,North,0,0.0,0.0,86,0.00,,,0.00,,2013-08-15 22:58:00,
2013-08-15 19:35:00,-999.0,-99.9,30.04,North,0,0.0,0.0,86,0.00,,,0.00,,2013-08-15 23:35:00,
2013-08-15 19:55:00,67.0,64.0,30.04,North,0,0.0,0.0,89,0.00,,,0.00,,2013-08-15 23:55:00,
2013-08-15 20:24:00,67.0,64.0,30.05,North,0,0.0,0.0,89,0.00,,,0.00,,2013-08-16 00:24:00,
2013-08-15 20:52:00,66.0,63.0,30.05,North,0,0.0,0.0,90,0.00,,,0.00,,2013-08-16 00:52:00,
2013-08-15 21:26:00,64.0,62.0,30.07,North,0,0.0,0.0,93,0.00,,,0.00,,2013-08-16 01:26:00,
2013-08-15 21:43:00,-999.0,-99.9,30.07,North,0,0.0,-999.0,-999,-99.99,,,-99.99,,2013-08-16 01:43:00,
2013-08-15 21:54:00,63.0,61.0,30.09,North,0,0.0,0.0,92,0.00,,,0.00,,2013-08-16 01:54:00,
2013-08-15 22:21:00,62.0,60.0,30.08,North,0,0.0,0.0,92,0.00,,,0.00,,2013-08-16 02:21:00,
2013-08-15 22:52:00,62.0,60.0,30.08,North,0,0.0,0.0,92,0.00,,,0.00,,2013-08-16 02:52:00,
2013-08-15 23:22:00,61.0,59.0,30.08,North,0,0.0,0.0,92,0.00,,,0.00,,2013-08-16 03:22:00,
2013-08-15 23:53:00,61.0,59.0,30.07,North,0,0.0,0.0,93,0.00,,,0.00,,2013-08-16 03:53:00,